[[{"header":{"parameterUnit":"m.s-1","parameterCategory":1,"la1":30.2991,"la2":30.254,"lo1":-89.0895,"lo2":-89.0444,"dx":0.0017,"dy":0.0017,"nx":28,"ny":28,"refTime":"2022-12-15T09:00:00:Z","depth":0,"parameterNumber":2,"parameterNumberName":"U-component_of_WINDS"},"data":[0,0,0,0,0,0,0,0,0,0,0,0,0,0,0,0,0,0,0,0,0,0,0,0,0,0,0,0,0,0,0,0,0,0,0,0,0,0,0,0,0,0,0,0,0,0,0,0,0,0,0,0,0,0,0,0,0,0,4.2068,4.2069,0,4.2155,4.2156,4.2157,4.2108,4.2105,4.2103,4.21,4.2189,4.2194,4.2199,0,0,0,0,0,0,0,0,0,0,0,0,0,4.186,4.1864,4.2068,4.2069,4.207,4.2155,4.2156,4.2158,4.2108,4.2105,4.2102,4.2099,4.2188,4.2193,4.2199,0,0,0,0,0,0,0,0,0,0,0,0,0,4.1949,4.1865,4.2068,4.2056,4.2056,4.2155,4.2157,4.2158,4.2109,4.2105,4.2101,4.2098,4.2186,4.2193,4.22,4.2316,0,0,4.2221,4.2224,0,0,0,0,0,0,0,0,4.1944,4.1957,4.2057,4.2057,4.2057,4.2117,4.2116,4.2211,4.211,4.2089,4.21,4.2096,4.2168,4.2176,4.2201,4.232,4.2324,4.2222,4.2226,4.2229,4.2231,0,0,0,0,0,0,0,4.1938,4.1953,4.2103,4.2058,4.2058,4.2047,4.2055,4.2133,4.2148,4.209,4.2087,4.2098,4.2168,4.2194,4.2203,4.2325,4.2221,4.2228,4.2232,4.2235,4.2546,4.255,0,0,0,0,0,0,4.1933,4.1948,4.21,4.2105,4.199,4.2053,4.2063,4.2101,4.2147,4.215,4.2101,4.2095,4.2184,4.2194,4.2205,4.2345,4.2229,4.2235,4.2239,4.2542,4.2547,4.2551,0,0,0,0,0,0,4.1928,4.1947,4.2096,4.2026,4.2044,4.2061,4.2104,4.2105,4.2131,4.2155,4.2157,4.2125,4.2182,4.2196,4.2289,4.2348,4.2238,4.2245,4.2537,4.2543,4.2549,4.2625,0,0,0,0,0,0,4.1923,4.1945,4.1989,4.2027,4.2048,4.2179,4.2108,4.2109,4.2144,4.2137,4.2179,4.2182,4.218,4.2279,4.2296,4.2355,4.225,4.2532,4.254,4.2547,4.2618,4.2633,4.2647,0,0,0,0,0,4.1915,4.2007,4.1992,4.201,4.2103,4.2182,4.2194,4.219,4.2149,4.2193,4.2209,4.2181,4.2339,4.2289,4.2308,4.237,4.2528,4.2537,4.2546,4.2611,4.263,4.2646,0,0,0,0,0,0,4.1975,4.2012,4.1995,4.2102,4.2139,4.2173,4.2229,4.221,4.226,4.2251,4.2244,4.2254,4.2352,4.237,4.2314,4.2486,4.2427,4.244,4.247,4.2488,4.2502,4.2496,4.2256,0,0,0,0,0,4.2001,4.2062,4.209,4.2182,4.2201,4.2213,4.2247,4.224,4.2279,4.2294,4.2316,4.2355,4.2413,4.2452,4.2507,4.262,4.2629,4.2673,4.2687,4.2699,4.271,4.2773,4.2793,4.2581,4.2581,4.2581,0,0,4.2054,4.2082,4.212,4.2195,4.2223,4.2286,4.2226,4.2295,4.2343,4.2305,4.2394,4.2412,4.2455,4.2559,4.2607,4.2578,4.2771,4.2711,4.272,4.2725,4.2785,4.2805,4.2822,4.2587,4.2586,4.2585,0,0,4.2184,4.2211,4.2291,4.2321,4.2364,4.2371,4.2391,4.2428,4.2439,4.2529,4.2502,4.2559,4.2659,4.2691,4.272,4.2865,4.2841,4.2883,4.2959,4.302,4.3036,4.3051,4.3103,4.3122,4.2894,4.2895,4.2895,0,4.2245,4.2339,4.2334,4.2406,4.244,4.2409,4.249,4.2519,4.2579,4.2603,4.257,4.2697,4.2723,4.2835,4.2871,4.2896,4.2918,4.2878,4.3034,4.3049,4.3063,4.3112,4.3132,4.2899,4.2899,4.2898,4.2898,0,4.2413,4.2479,4.2538,4.2597,4.2637,4.2713,4.272,4.2762,4.2753,4.2763,4.2856,4.2887,4.2949,4.2975,4.2966,4.3087,4.3067,4.3035,4.2976,4.3088,4.3134,4.3153,4.2906,4.2904,4.2903,4.2902,0,0,4.2581,4.2637,4.2659,4.2686,4.2733,4.2784,4.286,4.292,4.2956,4.2999,4.3062,4.3149,4.312,4.3153,4.3148,4.3202,4.3316,4.3163,4.3164,4.3191,4.3451,4.3475,4.3497,4.3301,4.3304,4.3307,4.3447,0,4.2714,4.2846,4.2844,4.2966,4.3028,4.3001,4.3066,4.3103,4.3116,4.317,4.3184,4.3246,4.3202,4.3222,4.3274,4.3291,4.3368,4.3281,4.336,4.3363,4.335,4.3521,4.3547,4.3677,4.3466,4.3469,4.3471,0,4.2887,4.2936,4.3065,4.3104,4.313,4.3189,4.3245,4.3297,4.3338,4.3344,4.3382,4.3369,4.3447,4.3386,4.3493,4.3434,4.3466,4.348,4.3485,4.3492,4.3423,4.3533,4.3719,4.3739,4.3499,4.3497,4.3495,0,4.2998,4.3096,4.3186,4.321,4.3258,4.33,4.3322,4.336,4.3397,4.3446,4.347,4.3527,4.3559,4.3604,4.3607,4.3563,4.3716,4.3655,4.3723,4.3723,4.3755,4.3753,4.395,4.3777,4.3777,4.3776,4.3776,0,4.3147,4.3226,4.3236,4.3292,4.3381,4.3378,4.3467,4.3485,4.3519,4.3578,4.3558,4.3613,4.3614,4.3672,4.3675,4.3764,4.3778,4.3785,4.3785,4.3787,4.3786,4.3807,4.3798,4.3781,4.378,4.3779,4.3778,0,4.3285,4.3295,4.3391,4.3429,4.3441,4.3505,4.3537,4.359,4.3602,4.3677,4.3694,4.3712,4.3778,4.3787,4.3864,4.3866,4.3973,4.3963,4.3959,4.3958,4.4025,4.4019,4.4242,4.4271,4.408,4.4081,4.4083,0,4.3379,4.344,4.3485,4.3523,4.3548,4.3609,4.3647,4.3647,4.3688,4.374,4.3787,4.3852,4.3904,4.4011,4.4031,4.4091,4.4082,4.4157,4.4091,4.4092,4.4084,4.408,4.4087,4.4169,4.4171,4.4173,4.4174,0,4.3545,4.3548,4.3603,4.3661,4.3707,4.3752,4.3795,4.3827,4.3833,4.388,4.3948,4.3988,4.4068,4.4132,4.4191,4.4214,4.4196,4.4195,4.4214,4.4216,4.4211,4.4215,4.3994,4.419,4.4188,4.4187,4.4186,4.4186,4.3665,4.3718,4.3758,4.3821,4.3853,4.3894,4.3946,4.3965,4.4021,4.4086,4.4083,4.4159,4.42,4.4277,4.4305,4.4364,4.4339,4.4367,4.4373,4.438,4.4387,4.4203,4.4375,4.4374,4.4374,4.4373,4.4373,0,4.383,4.3855,4.3913,4.3974,4.4024,4.4002,4.4049,4.4092,4.4158,4.4198,4.425,4.4329,4.4392,4.4418,4.448,4.4522,4.4515,4.4539,4.4535,4.4541,4.4405,4.4383,4.4543,4.4543,4.4543,4.4543,4.4543,4.4543,4.3922,4.4011,4.4019,4.4125,4.4149,4.4223,4.4251,4.4289,4.4321,4.441,4.4462,4.4479,4.4514,4.4578,4.4636,4.4642,4.4666,4.4693,4.4695,4.4568,4.455,4.4534,4.4513,4.4698,4.4698,4.4826,4.4827,4.4828]},{"header":{"parameterUnit":"m.s-1","parameterCategory":1,"la1":30.2991,"la2":30.254,"lo1":-89.0895,"lo2":-89.0444,"dx":0.0017,"dy":0.0017,"nx":28,"ny":28,"refTime":"2022-12-15T09:00:00:Z","depth":0,"parameterNumber":3,"parameterNumberName":"V-component_of_WINDS"},"data":[0,0,0,0,0,0,0,0,0,0,0,0,0,0,0,0,0,0,0,0,0,0,0,0,0,0,0,0,0,0,0,0,0,0,0,0,0,0,0,0,0,0,0,0,0,0,0,0,0,0,0,0,0,0,0,0,0,0,-4.7549,-4.7552,0,-4.7769,-4.7772,-4.7774,-4.777,-4.7767,-4.7764,-4.7762,-4.7989,-4.7997,-4.8006,0,0,0,0,0,0,0,0,0,0,0,0,0,-4.7128,-4.7136,-4.7549,-4.7552,-4.7555,-4.7769,-4.7772,-4.7775,-4.7771,-4.7767,-4.7764,-4.776,-4.7986,-4.7996,-4.8007,0,0,0,0,0,0,0,0,0,0,0,0,0,-4.7326,-4.7139,-4.7549,-4.7578,-4.7583,-4.7768,-4.7772,-4.7776,-4.7772,-4.7767,-4.7763,-4.7759,-4.7982,-4.7995,-4.8008,-4.8178,0,0,-4.8049,-4.8054,0,0,0,0,0,0,0,0,-4.7315,-4.7341,-4.7571,-4.7577,-4.7582,-4.7738,-4.7707,-4.7911,-4.7773,-4.77,-4.7762,-4.7756,-4.7909,-4.7928,-4.7979,-4.8189,-4.8199,-4.805,-4.8058,-4.8063,-4.8067,0,0,0,0,0,0,0,-4.7301,-4.7332,-4.7636,-4.7575,-4.7581,-4.7582,-4.7605,-4.7745,-4.7827,-4.7706,-4.7706,-4.7732,-4.7911,-4.7966,-4.7984,-4.8202,-4.8049,-4.8061,-4.8069,-4.8074,-4.8565,-4.857,0,0,0,0,0,0,-4.7281,-4.7321,-4.7629,-4.7643,-4.7435,-4.7593,-4.7619,-4.7692,-4.7825,-4.7841,-4.7736,-4.7731,-4.7946,-4.7969,-4.7992,-4.8202,-4.8063,-4.8076,-4.8083,-4.856,-4.8566,-4.8572,0,0,0,0,0,0,-4.7272,-4.7308,-4.762,-4.7482,-4.7522,-4.7605,-4.7688,-4.7699,-4.7754,-4.7848,-4.7862,-4.7777,-4.7943,-4.7974,-4.8133,-4.8209,-4.8082,-4.8094,-4.8554,-4.8562,-4.8569,-4.8621,0,0,0,0,0,0,-4.726,-4.7305,-4.737,-4.7483,-4.7529,-4.7756,-4.7692,-4.7707,-4.7777,-4.7773,-4.789,-4.7906,-4.7942,-4.8113,-4.8146,-4.8225,-4.8104,-4.8548,-4.8558,-4.8567,-4.8613,-4.863,-4.8644,0,0,0,0,0,-4.7245,-4.7376,-4.7373,-4.7411,-4.7612,-4.7761,-4.7787,-4.7826,-4.7783,-4.7849,-4.791,-4.7902,-4.8196,-4.8129,-4.8166,-4.8251,-4.8543,-4.8555,-4.8566,-4.8606,-4.8626,-4.8644,0,0,0,0,0,0,-4.727,-4.7391,-4.739,-4.7561,-4.7651,-4.776,-4.7845,-4.7846,-4.795,-4.7942,-4.7986,-4.8013,-4.8172,-4.8227,-4.8151,-4.8424,-4.8364,-4.8384,-4.8382,-4.8402,-4.8417,-4.8401,-4.8115,0,0,0,0,0,-4.7295,-4.7405,-4.7506,-4.7647,-4.7692,-4.7761,-4.7827,-4.7849,-4.7944,-4.7982,-4.8054,-4.8147,-4.826,-4.8334,-4.8443,-4.8621,-4.8647,-4.8697,-4.8713,-4.8725,-4.8742,-4.8841,-4.8865,-4.861,-4.861,-4.8609,0,0,-4.7349,-4.7429,-4.7495,-4.7654,-4.7726,-4.784,-4.7793,-4.7915,-4.8001,-4.8001,-4.8156,-4.8212,-4.8318,-4.8488,-4.8566,-4.8539,-4.8818,-4.874,-4.8749,-4.8759,-4.8856,-4.888,-4.8901,-4.8618,-4.8616,-4.8615,0,0,-4.7505,-4.7576,-4.7702,-4.7776,-4.7885,-4.793,-4.7961,-4.807,-4.8108,-4.8263,-4.8267,-4.8369,-4.8563,-4.864,-4.8704,-4.8891,-4.8888,-4.8925,-4.9006,-4.9103,-4.9123,-4.9141,-4.921,-4.9233,-4.8941,-4.8941,-4.8941,0,-4.7558,-4.7729,-4.7767,-4.7891,-4.7962,-4.7967,-4.8096,-4.8166,-4.8306,-4.8355,-4.8322,-4.8567,-4.8639,-4.8827,-4.8872,-4.8924,-4.8961,-4.8912,-4.9117,-4.9136,-4.9153,-4.9219,-4.9244,-4.8945,-4.8945,-4.8944,-4.8944,0,-4.779,-4.7909,-4.7998,-4.8133,-4.8214,-4.8339,-4.8398,-4.8475,-4.849,-4.8539,-4.8699,-4.8786,-4.8914,-4.896,-4.8976,-4.9151,-4.9131,-4.9107,-4.9048,-4.9181,-4.9243,-4.9268,-4.8951,-4.8949,-4.8948,-4.8947,0,0,-4.7968,-4.8123,-4.8155,-4.8217,-4.8339,-4.8432,-4.8559,-4.8684,-4.875,-4.8846,-4.8955,-4.9119,-4.9099,-4.9172,-4.9197,-4.9282,-4.9426,-4.9248,-4.9251,-4.9279,-4.9626,-4.9644,-4.9672,-4.9425,-4.943,-4.9434,-4.9618,0,-4.8138,-4.8362,-4.8401,-4.8598,-4.8709,-4.8716,-4.8827,-4.8914,-4.8964,-4.9066,-4.9121,-4.9238,-4.9201,-4.9245,-4.9329,-4.9391,-4.9497,-4.9378,-4.9527,-4.9532,-4.9501,-4.9705,-4.9724,-4.9893,-4.9642,-4.9646,-4.9649,0,-4.8366,-4.8469,-4.8677,-4.8785,-4.8833,-4.8932,-4.905,-4.9147,-4.9247,-4.9277,-4.9359,-4.9375,-4.9509,-4.9443,-4.9628,-4.9547,-4.961,-4.965,-4.9658,-4.9674,-4.9599,-4.9728,-4.9948,-4.9974,-4.9688,-4.9685,-4.9682,0,-4.8477,-4.8667,-4.8816,-4.8869,-4.8998,-4.9068,-4.9125,-4.9221,-4.9294,-4.9398,-4.9446,-4.9564,-4.9629,-4.972,-4.9768,-4.9716,-4.9951,-4.9889,-4.9981,-4.998,-5.003,-5.0027,-5.0265,-5.0069,-5.0069,-5.0068,-5.0068,0,-4.8663,-4.8791,-4.8868,-4.896,-4.9103,-4.9147,-4.9288,-4.9344,-4.9429,-4.9533,-4.9547,-4.9644,-4.9701,-4.9807,-4.9845,-4.9994,-5.0023,-5.0052,-5.0061,-5.0052,-5.0048,-5.0094,-5.0084,-5.0075,-5.0074,-5.0072,-5.0071,0,-4.8811,-4.8868,-4.9031,-4.9141,-4.9171,-4.9272,-4.9367,-4.9457,-4.9506,-4.9638,-4.9671,-4.9749,-4.9875,-4.9932,-5.0087,-5.0113,-5.0283,-5.0283,-5.0249,-5.0252,-5.0342,-5.0333,-5.0619,-5.066,-5.0436,-5.0438,-5.0439,0,-4.8927,-4.9025,-4.9145,-4.9216,-4.9275,-4.9388,-4.9463,-4.951,-4.9588,-4.971,-4.9786,-4.9912,-5.0016,-5.0217,-5.0288,-5.0407,-5.0411,-5.0503,-5.0429,-5.0417,-5.0414,-5.0408,-5.0419,-5.0517,-5.0519,-5.0521,-5.0522,0,-4.9127,-4.915,-4.9257,-4.9375,-4.9463,-4.9558,-4.9651,-4.9708,-4.9771,-4.9857,-4.9986,-5.0067,-5.0226,-5.0352,-5.0476,-5.0536,-5.0541,-5.0545,-5.0573,-5.0565,-5.0542,-5.0557,-5.0287,-5.0538,-5.0537,-5.0536,-5.0535,-5.0534,-4.9264,-4.9352,-4.945,-4.9569,-4.9644,-4.9731,-4.9822,-4.9883,-4.9991,-5.0124,-5.0145,-5.0283,-5.0382,-5.0549,-5.0614,-5.0724,-5.0702,-5.0742,-5.0752,-5.0762,-5.0768,-5.0524,-5.0746,-5.0746,-5.0746,-5.0745,-5.0745,0,-4.9465,-4.9529,-4.9638,-4.9768,-4.9862,-4.9857,-4.9961,-5.004,-5.0161,-5.0253,-5.0355,-5.0504,-5.0626,-5.0707,-5.0831,-5.0903,-5.0909,-5.0935,-5.093,-5.0945,-5.0779,-5.0744,-5.0928,-5.0928,-5.0928,-5.0928,-5.0928,-5.0928,-4.9581,-4.9731,-4.9766,-4.9954,-5.0017,-5.0152,-5.0211,-5.0292,-5.0366,-5.0531,-5.0633,-5.0685,-5.0773,-5.0904,-5.1017,-5.1038,-5.1084,-5.1111,-5.1131,-5.0975,-5.0956,-5.0938,-5.0904,-5.112,-5.112,-5.1287,-5.1289,-5.129]}]]